TimeEDT,TemperatureF,Dew PointF,Humidity,Sea Level PressureIn,VisibilityMPH,Wind Direction,Wind SpeedMPH,Gust SpeedMPH,PrecipitationIn,Events,Conditions,WindDirDegrees,DateUTC
12:15 AM,37.4,35.6,93,29.92,10.0,South,5.8,-,N/A,,Clear,190,2013-10-18 04:15:00
12:35 AM,37.4,35.6,93,29.92,10.0,SSW,5.8,-,N/A,,Clear,200,2013-10-18 04:35:00
12:55 AM,37.4,35.6,93,29.92,10.0,SSW,5.8,-,N/A,,Clear,200,2013-10-18 04:55:00
1:15 AM,37.4,35.6,93,29.92,10.0,South,5.8,-,N/A,,Clear,190,2013-10-18 05:15:00
1:35 AM,37.4,35.6,93,29.92,10.0,SSW,5.8,-,N/A,,Clear,200,2013-10-18 05:35:00
1:55 AM,37.4,35.6,93,29.92,10.0,SSW,6.9,-,N/A,,Clear,200,2013-10-18 05:55:00
2:15 AM,37.4,35.6,93,29.92,10.0,SSW,6.9,-,N/A,,Clear,210,2013-10-18 06:15:00
2:35 AM,39.2,35.6,87,29.92,10.0,SSW,6.9,-,N/A,,Clear,210,2013-10-18 06:35:00
2:55 AM,41.0,37.4,87,29.92,10.0,SSW,8.1,-,N/A,,Clear,210,2013-10-18 06:55:00
3:15 AM,39.2,35.6,87,29.92,10.0,SSW,6.9,-,N/A,,Clear,210,2013-10-18 07:15:00
3:35 AM,37.4,35.6,93,29.92,10.0,SSW,6.9,-,N/A,,Clear,200,2013-10-18 07:35:00
3:55 AM,37.4,35.6,93,29.92,10.0,SSW,6.9,-,N/A,,Clear,210,2013-10-18 07:55:00
4:15 AM,37.4,35.6,93,29.91,10.0,SSW,6.9,-,N/A,,Clear,200,2013-10-18 08:15:00
4:35 AM,37.4,35.6,93,29.91,10.0,SSW,8.1,-,N/A,,Clear,200,2013-10-18 08:35:00
4:55 AM,39.2,37.4,93,29.91,10.0,SSW,6.9,-,N/A,,Clear,200,2013-10-18 08:55:00
5:15 AM,37.4,35.6,93,29.91,10.0,SSW,6.9,-,N/A,,Clear,200,2013-10-18 09:15:00
5:35 AM,39.2,37.4,93,29.92,10.0,SSW,8.1,-,N/A,,Clear,200,2013-10-18 09:35:00
5:55 AM,39.2,37.4,93,29.92,10.0,SSW,6.9,-,N/A,,Clear,200,2013-10-18 09:55:00
6:15 AM,41.0,37.4,87,29.92,10.0,SSW,8.1,-,N/A,,Clear,200,2013-10-18 10:15:00
6:35 AM,41.0,37.4,87,29.92,10.0,SSW,8.1,-,N/A,,Clear,200,2013-10-18 10:35:00
6:55 AM,39.2,37.4,93,29.92,10.0,SSW,6.9,-,N/A,,Clear,200,2013-10-18 10:55:00
7:15 AM,39.2,37.4,93,29.92,10.0,SSW,6.9,-,N/A,,Clear,200,2013-10-18 11:15:00
7:35 AM,39.2,37.4,93,29.92,10.0,SSW,6.9,-,N/A,,Clear,210,2013-10-18 11:35:00
7:55 AM,39.2,37.4,93,29.92,10.0,SSW,6.9,-,N/A,,Clear,200,2013-10-18 11:55:00
8:15 AM,39.2,37.4,93,29.93,10.0,SSW,6.9,-,N/A,,Clear,200,2013-10-18 12:15:00
8:35 AM,41.0,39.2,93,29.93,10.0,SSW,6.9,-,N/A,,Clear,200,2013-10-18 12:35:00
8:55 AM,42.8,41.0,93,29.94,10.0,SSW,6.9,-,N/A,,Clear,200,2013-10-18 12:55:00
9:15 AM,44.6,41.0,87,29.94,10.0,SW,10.4,-,N/A,,Clear,220,2013-10-18 13:15:00
9:35 AM,46.4,42.8,87,29.95,10.0,SW,12.7,-,N/A,,Clear,220,2013-10-18 13:35:00
9:55 AM,46.4,42.8,87,29.95,10.0,SW,12.7,-,N/A,,Clear,230,2013-10-18 13:55:00
10:15 AM,50.0,42.8,76,29.96,10.0,SW,11.5,-,N/A,,Clear,220,2013-10-18 14:15:00
10:35 AM,50.0,42.8,76,29.96,10.0,SW,13.8,-,N/A,,Clear,230,2013-10-18 14:35:00
10:55 AM,51.8,42.8,71,29.97,10.0,SW,11.5,-,N/A,,Clear,230,2013-10-18 14:55:00
11:15 AM,51.8,44.6,76,29.97,10.0,WSW,10.4,-,N/A,,Clear,240,2013-10-18 15:15:00
11:35 AM,53.6,44.6,72,29.96,10.0,WSW,10.4,-,N/A,,Clear,240,2013-10-18 15:35:00
11:55 AM,55.4,42.8,63,29.96,10.0,SW,10.4,-,N/A,,Clear,230,2013-10-18 15:55:00
12:15 PM,55.4,42.8,63,29.96,10.0,SW,11.5,-,N/A,,Clear,230,2013-10-18 16:15:00
12:35 PM,57.2,42.8,59,29.95,10.0,SW,9.2,-,N/A,,Clear,220,2013-10-18 16:35:00
12:55 PM,59.0,42.8,55,29.95,10.0,SSW,11.5,17.3,N/A,,Clear,210,2013-10-18 16:55:00
1:15 PM,59.0,42.8,55,29.94,10.0,WSW,11.5,19.6,N/A,,Clear,240,2013-10-18 17:15:00
1:35 PM,60.8,42.8,52,29.94,10.0,WSW,15.0,18.4,N/A,,Clear,240,2013-10-18 17:35:00
1:55 PM,60.8,42.8,52,29.94,10.0,WSW,13.8,20.7,N/A,,Clear,250,2013-10-18 17:55:00
2:15 PM,60.8,42.8,52,29.93,10.0,West,15.0,-,N/A,,Clear,260,2013-10-18 18:15:00
2:35 PM,60.8,42.8,52,29.93,10.0,West,12.7,23.0,N/A,,Scattered Clouds,270,2013-10-18 18:35:00
2:55 PM,59.0,41.0,51,29.93,10.0,West,15.0,20.7,N/A,,Mostly Cloudy,260,2013-10-18 18:55:00
3:15 PM,59.0,42.8,55,29.93,10.0,WSW,15.0,-,N/A,,Scattered Clouds,250,2013-10-18 19:15:00
3:35 PM,59.0,42.8,55,29.92,10.0,West,10.4,19.6,N/A,,Scattered Clouds,270,2013-10-18 19:35:00
3:55 PM,59.0,44.6,59,29.93,10.0,WNW,15.0,18.4,N/A,,Clear,290,2013-10-18 19:55:00
4:15 PM,55.4,42.8,63,29.94,10.0,WNW,15.0,21.9,N/A,,Clear,290,2013-10-18 20:15:00
4:35 PM,53.6,42.8,67,29.94,10.0,WNW,10.4,-,N/A,,Clear,290,2013-10-18 20:35:00
4:55 PM,51.8,41.0,67,29.94,10.0,WNW,11.5,19.6,N/A,,Clear,290,2013-10-18 20:55:00
5:15 PM,51.8,41.0,67,29.95,10.0,WNW,10.4,20.7,N/A,,Clear,300,2013-10-18 21:15:00
5:35 PM,50.0,41.0,71,29.95,10.0,WNW,10.4,18.4,N/A,,Scattered Clouds,290,2013-10-18 21:35:00
5:55 PM,50.0,41.0,71,29.95,10.0,West,12.7,17.3,N/A,,Clear,280,2013-10-18 21:55:00
6:15 PM,50.0,39.2,66,29.96,10.0,West,11.5,-,N/A,,Clear,280,2013-10-18 22:15:00
6:35 PM,46.4,37.4,71,29.97,10.0,West,13.8,18.4,N/A,,Clear,280,2013-10-18 22:35:00
6:55 PM,46.4,37.4,71,29.97,10.0,West,12.7,16.1,N/A,,Clear,280,2013-10-18 22:55:00
7:15 PM,46.4,37.4,71,29.98,10.0,WNW,10.4,19.6,N/A,,Scattered Clouds,290,2013-10-18 23:15:00
7:35 PM,44.6,37.4,76,29.99,10.0,West,8.1,-,N/A,,Scattered Clouds,270,2013-10-18 23:35:00
7:55 PM,44.6,37.4,76,29.99,10.0,WNW,9.2,-,N/A,,Scattered Clouds,290,2013-10-18 23:55:00
8:15 PM,44.6,35.6,71,29.99,10.0,WNW,4.6,-,N/A,,Scattered Clouds,300,2013-10-19 00:15:00
8:35 PM,42.8,35.6,76,29.99,10.0,WNW,3.5,-,N/A,,Clear,290,2013-10-19 00:35:00
8:55 PM,42.8,35.6,76,29.99,10.0,Calm,Calm,-,N/A,,Clear,0,2013-10-19 00:55:00
9:15 PM,41.0,35.6,81,29.99,10.0,Calm,Calm,-,N/A,,Clear,0,2013-10-19 01:15:00
9:35 PM,39.2,33.8,81,29.98,10.0,Calm,Calm,-,N/A,,Clear,0,2013-10-19 01:35:00
9:55 PM,41.0,35.6,81,29.99,10.0,Calm,Calm,-,N/A,,Clear,0,2013-10-19 01:55:00
10:15 PM,39.2,35.6,87,29.99,10.0,West,4.6,-,N/A,,Clear,260,2013-10-19 02:15:00
10:35 PM,41.0,35.6,81,29.99,10.0,SW,3.5,-,N/A,,Clear,220,2013-10-19 02:35:00
10:55 PM,41.0,37.4,87,29.98,10.0,SW,3.5,-,N/A,,Clear,230,2013-10-19 02:55:00
11:15 PM,41.0,37.4,87,29.98,10.0,SW,4.6,-,N/A,,Clear,230,2013-10-19 03:15:00
11:35 PM,39.2,35.6,87,29.97,10.0,Calm,Calm,-,N/A,,Clear,0,2013-10-19 03:35:00
11:55 PM,37.4,35.6,93,29.96,10.0,Calm,Calm,-,N/A,,Clear,0,2013-10-19 03:55:00